Location: Birkenzell
(48.9908°N, 10.2739°E)
Time: 12:26:59
(UTC+00:00)

Daily predictions for brighter satellites

Satellite Brightness Start Highest point End
(mag) Time Altitude Azimuth Time Altitude Azimuth Time Altitude Azimuth
CZ-2C R/B 4.0 15:53:59 10° N 15:58:53 38° WNW 16:03:41 10° SW
Cosmos 1943 4.0 15:58:17 10° NNW 16:03:08 28° NE 16:07:57 10° ESE
Cosmos 1607 4.4 15:57:18 10° S 16:03:18 47° ESE 16:09:26 10° NE
Cosmos 1544 3.2 16:01:19 10° N 16:04:24 38° ENE 16:07:28 10° SSE
Cosmos 1634 Rocket 4.0 15:58:31 10° N 16:04:52 79° E 16:11:12 10° SSE
Cosmos 1269 Rocket 4.1 16:00:15 10° NNW 16:05:28 56° ENE 16:10:39 10° SE
PSLV R/B 3.9 16:01:51 10° S 16:06:04 71° WSW 16:10:22 10° NNW
SL-08 RB Rocket 3.8 16:02:33 10° SSE 16:07:01 84° WSW 16:11:33 10° NNW
Cosmos 614 Rocket 3.9 16:02:52 10° NNW 16:08:07 76° ENE 16:13:18 10° SSE
BREEZE-M DEB (TANK) 3.2 16:05:25 10° SW 16:08:32 72° SE 16:19:11 10° ENE
Cosmos 1076 Rocket 3.9 16:05:06 10° N 16:09:16 41° ENE 16:13:24 10° SE
Tiangong 0.8 16:08:55 10° SW 16:10:45 14° SSW 16:12:35 10° SSE
NOSS 3-4 (A) 3.9 16:04:58 10° NW 16:11:52 88° NE 16:19:49 10° SE
Meteor 2-16 Rocket 4.5 16:05:48 10° S 16:11:55 81° E 16:18:05 10° NNE
NOSS 3-4 (C) 3.9 16:05:08 10° NW 16:11:59 88° NE 16:19:49 10° SE
SAR-Lupe-2 3.5 16:08:34 10° SSE 16:12:08 80° ENE 16:15:44 10° NNW
NOSS 3-3 (C) 4.2 16:08:09 10° SW 16:13:44 67° NW 16:20:21 10° NE
NOSS 3-3 (A) 4.2 16:08:34 10° SW 16:14:07 66° NW 16:20:42 10° NE
Cosmos 2297 Rocket 2.8 16:09:06 10° SW 16:14:39 57° WNW 16:20:15 10° NNE
ERS-2 2.4 16:12:37 10° S 16:15:30 54° WSW 16:18:24 10° NNW
Cosmos 1953 Rocket 3.6 16:11:22 10° N 16:15:52 84° E 16:20:18 10° S
Cosmos 2219 3.3 16:11:05 10° SSW 16:16:35 62° ESE 16:22:09 10° NNE
Cosmos 2142 Rocket 4.5 16:11:55 10° N 16:18:00 60° ENE 16:24:03 10° SSE
Cosmos 44 3.5 16:13:19 10° NW 16:18:44 66° NE 16:23:55 10° SE
Cosmos 1125 Rocket 4.5 16:14:20 10° SW 16:19:22 46° WNW 16:24:27 10° NNE
DMSP B5D2-2 4.1 16:17:08 10° NNE 16:22:18 60° E 16:27:27 10° S
USA 234 3.8 16:16:22 10° ENE 16:22:37 45° SE 16:28:49 10° SSW
Cosmos 1602 4.4 16:19:52 10° N 16:23:10 29° ENE 16:26:28 10° SE
Cosmos 1862 3.5 16:20:06 10° NNW 16:24:00 72° W 16:27:54 10° S
USA 308 3.1 16:22:54 10° WNW 16:24:49 28° SW 16:26:27 10° SSE
USA 307 2.8 16:24:10 10° WNW 16:27:58 54° NNE 16:31:19 13° E
Cosmos 1666 2.9 16:24:42 10° N 16:28:02 38° ENE 16:31:22 10° SE
ISS -3.8 16:28:50 10° WNW 16:32:12 88° SSW 16:35:28 11° ESE
Cosmos 2279 Rocket 4.0 16:26:42 10° N 16:33:00 84° E 16:39:14 10° S
Aureole 3 Rocket 3.8 16:28:53 10° NNW 16:33:53 56° W 16:37:33 10° S
Cosmos 2082 3.9 16:28:32 10° S 16:33:58 53° ESE 16:39:26 10° NE
AQUARIUS 4.1 16:30:42 10° SSE 16:35:06 64° ENE 16:39:33 10° N
COSMO-SKYMED 1 3.8 16:34:41 14° NE 16:37:10 22° E 16:40:33 10° SE
Cosmos 1606 4.3 16:34:12 10° SW 16:37:31 33° WNW 16:40:53 10° N
ATLAS CENTAUR R/B 2.5 16:34:50 10° NW 16:38:42 64° NNE 16:46:10 10° ESE
Cosmos 2058 Rocket 3.0 16:34:45 10° S 16:39:11 79° E 16:43:38 10° NNE
YAOGAN 11 4.3 16:40:59 10° NNE 16:45:32 77° WNW 16:50:04 10° SSW
Cosmos 405 Rocket 3.0 16:42:26 10° SSW 16:46:12 67° WNW 16:50:03 10° N
Helios 1A 3.4 16:44:12 11° NNE 16:47:54 39° E 16:51:48 10° S
Cosmos 1140 Rocket 3.7 16:44:45 10° NNW 16:49:47 47° ENE 16:54:45 10° SE
SMAP 3.4 16:48:43 10° S 16:53:21 68° WSW 16:58:00 10° NNW
USA 306 1.0 16:51:26 10° WNW 16:53:39 89° NNE 16:54:02 55° ESE
Nadezhda 4 Rocket 4.0 16:48:21 10° SSE 16:54:18 54° E 17:00:15 10° NNE
NOSS 8 (A) 4.3 16:52:01 10° SSW 16:55:47 67° SE 16:57:08 31° NE
CZ-4B R/B 4.0 16:58:57 25° ENE 16:58:57 25° ENE 17:02:16 10° N
Cosmos 1500 3.5 16:55:23 10° NNW 16:58:53 61° W 17:02:21 10° S
Meteor 1-20 Rocket 4.2 16:53:54 10° N 16:59:22 57° ENE 17:04:54 10° SSE
Cosmos-2242 3.2 16:57:27 10° SSE 17:01:37 48° E 17:05:03 15° NNE
Cosmos 1437 Rocket 4.3 16:59:39 10° NNW 17:03:05 36° W 17:06:32 10° SSW
NOAA 6 4.0 17:01:55 10° SSE 17:06:59 64° ENE 17:12:04 10° N
Cosmos 2263 Rocket 2.1 17:02:07 10° SSW 17:07:41 82° ESE 17:12:14 16° NNE
USA 276 3.3 17:06:34 10° SSW 17:08:15 22° SSE 17:08:15 22° SSE
SL-8 R/B 3.9 17:04:14 10° W 17:08:59 69° SSW 17:12:00 22° ESE
Cosmos 1844 Rocket 4.0 17:05:38 10° SE 17:08:55 20° ESE 17:08:55 20° ESE
Cosmos 2227 Rocket 3.3 17:05:18 10° WSW 17:10:36 40° NW 17:15:56 10° NNE
Cosmos 2151 4.5 17:06:42 10° NNW 17:10:40 38° W 17:14:38 10° SSW
RESURS DK-1 4.4 17:08:01 10° N 17:09:16 14° NNE 17:09:16 14° NNE
CZ-4 R/B 4.3 17:13:30 10° SSE 17:17:34 69° ENE 17:21:39 10° N
YAOGAN 1 3.4 17:19:24 30° NE 17:19:24 30° NE 17:22:14 10° N
Cosmos 1603 3.7 17:14:39 10° NNW 17:20:20 62° ENE 17:25:56 10° SE
Cosmos 1812 2.4 17:17:18 10° S 17:20:57 72° E 17:22:20 36° NNE
Cosmos 2251 Rocket 3.5 17:16:36 10° NNW 17:21:57 67° ENE 17:27:17 10° SSE
CZ-4B R/B 3.6 17:17:36 10° S 17:22:43 76° WSW 17:27:42 10° NNW
SKYMED 2 3.5 17:23:18 28° NNE 17:25:31 63° ESE 17:29:49 10° S
Cosmos 407 Rocket 3.3 17:21:27 10° NNW 17:26:38 68° ENE 17:31:43 10° SSE
USA 305 2.5 17:24:04 10° WNW 17:27:55 88° NNE 17:28:38 58° ESE
ATLAS 2AS CENTAUR R/B 3.0 17:21:17 10° NW 17:27:58 44° NE 17:30:16 33° ENE
JB-3 4.5 17:30:55 49° SE 17:30:55 49° SE 17:34:13 10° S
Lacrosse 4 Rocket 1.3 17:27:54 10° NNW 17:32:17 89° NE 17:34:32 27° SSE
SL-16 R/B 4.4 17:28:29 10° NW 17:33:10 27° WSW 17:37:51 10° SSW
TRAILBLAZER 4.5 17:29:11 10° SSW 17:33:46 78° SE 17:34:57 50° NE
Cosmos 1782 3.6 17:35:07 10° S 17:37:38 37° SSE 17:37:38 37° SSE
Cosmos 1818 3.8 17:34:51 10° S 17:39:59 45° ESE 17:40:25 44° ESE
Meteor 2-2 Rocket 4.2 17:36:12 10° S 17:41:55 78° E 17:47:28 12° NNE
Meteor 2-9 4.5 17:36:48 10° N 17:42:13 86° E 17:47:41 10° SSE
Meteor 2-17 Rocket 4.3 17:39:07 10° S 17:45:11 68° E 17:51:16 10° NNE
Timation 2 Rocket 4.5 17:40:36 10° S 17:45:09 35° SE 17:45:09 35° SE
Cosmos 1943 3.6 17:42:01 10° NNW 17:47:36 63° WSW 17:53:09 10° SSE
Cosmos 1812 Rocket 3.7 17:45:50 10° SSW 17:50:08 69° W 17:52:19 29° N
CZ-4B DEB 4.1 17:49:04 24° SE 17:52:29 65° ENE 17:58:00 10° N
Radarsat Rocket 4.4 17:47:00 10° S 17:52:44 61° WSW 17:58:44 10° NNW
SL-08 R/B 3.1 17:54:02 63° NNE 17:54:48 86° ESE 17:59:25 10° SSW
Cosmos 1190 Rocket 3.9 17:50:16 10° NNW 17:55:36 70° ENE 17:56:11 64° ESE
ADEOS 3.7 17:52:09 10° S 17:57:21 72° WSW 18:02:36 10° NNW
ADEOS Rocket 4.4 18:05:29 20° N 18:05:29 20° N 18:07:22 10° N
USA 307 3.6 17:59:48 10° WNW 18:03:12 42° SW 18:03:12 42° SW
USA 234 3.3 18:03:40 44° NE 18:05:53 73° NNW 18:12:24 10° WSW
ISS -1.4 18:06:00 10° W 18:08:24 21° SW 18:08:24 21° SW
PAYLOAD B 4.3 18:09:59 58° NNE 18:09:59 58° NNE 18:14:38 10° N
Cosmos 1553 Rocket 3.9 18:03:03 10° N 18:09:24 68° ENE 18:10:27 58° SE
Cosmos 1844 4.5 18:05:42 10° S 18:09:25 37° SSE 18:09:25 37° SSE
COSMO-SKYMED 1 3.6 18:11:55 30° NNW 18:13:32 44° WNW 18:17:39 10° SW
Cosmos 2344 3.3 18:06:21 10° SW 18:13:53 86° SE 18:16:07 49° NE
Cosmos 2026 Rocket 4.2 18:16:28 10° SSW 18:22:40 68° WNW 18:29:00 10° N
Meteor 1-26 Rocket 4.5 18:17:13 10° S 18:21:27 55° S 18:21:27 55° S
Lacrosse 5 3.3 18:22:23 10° SSW 18:24:56 28° SSW 18:24:56 28° SSW
ATLAS CENTAUR R/B 4.4 18:38:55 10° WNW 18:43:48 36° SW 18:52:07 11° SSE
Cosmos 2263 Rocket 4.1 18:47:56 10° W 18:52:18 23° NW 18:53:56 20° NNW
Cosmos 1844 Rocket 3.8 18:47:18 10° SW 18:50:38 37° SW 18:50:38 37° SW
Lacrosse 4 Rocket 4.5 19:08:21 10° W 19:09:58 12° WSW 19:10:41 11° WSW
ATLAS 2AS CENTAUR R/B 3.4 19:12:24 10° NW 19:17:44 49° W 19:17:44 49° W
